Location: Cuiry
(49.3858°N, 3.7708°E)
Time: 08:29:33
(UTC+00:00)

Nadezhda 1 Rocket - Pass Details

Date: 12 January 2026
Orbit: 941 x 1004 km, 83.0° (Epoch: 19 February)

Event Time Altitude Azimuth Distance (km) Brightness Sun altitude
Rises 16:39:34 0° 173° (S) 3,601 7.3 -5.0°
Reaches altitude 10° 16:42:05 10° 169° (S) 2,656 6.5 -5.4°
Maximum altitude 16:47:59 56° 93° (E) 1,108 4.1 -6.2°
Drops below altitude 10° 16:53:55 10° 16° (NNE) 2,672 5.9 -7.1°
Sets 16:56:27 0° 13° (NNE) 3,624 6.6 -7.5°
